Terminal Aerodrome Forecast
Issued by NWS

Home | Current Version | Previous Version | Text Only | Print | Product List | Glossary On
Versions: 1 2 3 4 5 6 7 8 9 10 11 12 13 14 15 16 17 18 19 20 21 22 23 24 25 26 27 28 29 30 31 32 33 34 35 36 37 38 39 40 41 42 43 44 45 46 47 48 49 50
000
FTUS44 KHGX 232102 AAA
TAFIAH
TAF AMD
KIAH 232102Z 2321/2424 17010KT P6SM SCT050 SCT250
     FM240400 16006KT P6SM SCT015
     FM240900 17005KT P6SM BKN015
     FM241500 12006KT P6SM VCSH BKN035
     FM241800 12006KT P6SM VCTS BKN050CB PROB30 2421/2424 -TSRA=

USA.gov is the U.S. government's official web portal to all federal, state and local government web resources and services.